PRLFR SBSP-SBVT

Flight info

Callsign PRLFR
Flight time 1h 37m
Altitude 27000
Route NIBRU UL206 TODET
Aircraft TBM8/L-SDE3GHIJ2J3J5M1RVWXYZ/LB1

Departure

Time 2026-05-07 15:39
Airport Congonhas–Deputado Freitas Nobre Airport (SBSP)

Arrival

Time 2026-05-07 17:16
Airport Eurico de Aguiar Salles International Airport (SBVT)
Time Latitude Longitude Altitude Speed Heading
2026-05-07 14:48 -23.62208 -46.65563 2595 ft 0 kts 147°
2026-05-07 15:13 -23.62207 -46.65564 2622 ft 0 kts 147°
2026-05-07 15:14 -23.62209 -46.65562 2595 ft 0 kts 135°
2026-05-07 15:14 -23.62211 -46.65559 2584 ft 0 kts 122°
2026-05-07 15:14 -23.62213 -46.65557 2586 ft 0 kts 135°
2026-05-07 15:15 -23.62215 -46.65555 2587 ft 0 kts 147°
2026-05-07 15:15 -23.62216 -46.65555 2588 ft 0 kts 148°
2026-05-07 15:28 -23.62217 -46.65554 2595 ft 1 kts 146°
2026-05-07 15:28 -23.62220 -46.65552 2595 ft 0 kts 174°
2026-05-07 15:29 -23.62227 -46.65555 2595 ft 2 kts 218°
2026-05-07 15:29 -23.62233 -46.65564 2595 ft 0 kts 243°
2026-05-07 15:29 -23.62237 -46.65577 2587 ft 0 kts 250°
2026-05-07 15:29 -23.62227 -46.65604 2591 ft 3 kts 327°
2026-05-07 15:30 -23.62220 -46.65609 2593 ft 4 kts 329°
2026-05-07 15:30 -23.62215 -46.65612 2595 ft 2 kts 328°
2026-05-07 15:30 -23.62206 -46.65618 2594 ft 4 kts 327°
2026-05-07 15:30 -23.62180 -46.65636 2594 ft 4 kts 326°
2026-05-07 15:31 -23.62156 -46.65654 2594 ft 6 kts 326°
2026-05-07 15:31 -23.62130 -46.65672 2594 ft 0 kts 328°
2026-05-07 15:32 -23.62116 -46.65683 2594 ft 5 kts 314°
2026-05-07 15:32 -23.62111 -46.65703 2585 ft 5 kts 253°
2026-05-07 15:33 -23.62128 -46.65735 2591 ft 4 kts 255°
2026-05-07 15:33 -23.62123 -46.65758 2593 ft 8 kts 295°
2026-05-07 15:33 -23.62076 -46.65798 2594 ft 4 kts 345°
2026-05-07 15:33 -23.62046 -46.65805 2594 ft 3 kts 321°
2026-05-07 15:34 -23.62041 -46.65817 2594 ft 3 kts 238°
2026-05-07 15:34 -23.62052 -46.65820 2592 ft 4 kts 142°
2026-05-07 15:34 -23.62060 -46.65814 2591 ft 0 kts 146°
2026-05-07 15:38 -23.62065 -46.65810 2594 ft 8 kts 150°
2026-05-07 15:38 -23.62260 -46.65665 2593 ft 61 kts 150°
2026-05-07 15:38 -23.62770 -46.65323 2589 ft 108 kts 146°
2026-05-07 15:38 -23.63435 -46.64890 2967 ft 102 kts 139°
2026-05-07 15:39 -23.64132 -46.64472 3319 ft 125 kts 154°
2026-05-07 15:39 -23.64944 -46.63958 3534 ft 149 kts 145°
2026-05-07 15:39 -23.65818 -46.63205 3715 ft 172 kts 141°
2026-05-07 15:39 -23.66650 -46.62233 4097 ft 168 kts 114°
2026-05-07 15:40 -23.67082 -46.61067 4505 ft 173 kts 101°
2026-05-07 15:40 -23.67386 -46.59684 4527 ft 197 kts 94°
2026-05-07 15:40 -23.67593 -46.58197 4855 ft 198 kts 94°
2026-05-07 15:40 -23.67925 -46.56759 5245 ft 198 kts 108°
2026-05-07 15:41 -23.68690 -46.55467 5591 ft 203 kts 125°
2026-05-07 15:41 -23.69634 -46.54323 6048 ft 203 kts 131°
2026-05-07 15:41 -23.70496 -46.53085 6306 ft 204 kts 107°
2026-05-07 15:41 -23.70887 -46.51624 6631 ft 204 kts 103°
2026-05-07 15:42 -23.71504 -46.50198 6939 ft 213 kts 115°
2026-05-07 15:42 -23.71980 -46.48720 7259 ft 202 kts 90°
2026-05-07 15:42 -23.71832 -46.47242 7602 ft 192 kts 74°
2026-05-07 15:42 -23.71580 -46.45770 7939 ft 200 kts 76°
2026-05-07 15:43 -23.71364 -46.44267 8259 ft 199 kts 76°
2026-05-07 15:43 -23.71151 -46.42787 8598 ft 196 kts 76°
2026-05-07 15:43 -23.70941 -46.41310 8944 ft 196 kts 76°
2026-05-07 15:43 -23.70736 -46.39854 9212 ft 197 kts 76°
2026-05-07 15:44 -23.70534 -46.38367 9571 ft 196 kts 77°
2026-05-07 15:44 -23.70315 -46.36892 9911 ft 194 kts 75°
2026-05-07 15:44 -23.70108 -46.35455 10226 ft 192 kts 76°
2026-05-07 15:44 -23.69910 -46.34036 10541 ft 190 kts 76°
2026-05-07 15:45 -23.69706 -46.32609 10879 ft 191 kts 76°
2026-05-07 15:45 -23.69504 -46.31170 11193 ft 191 kts 77°
2026-05-07 15:45 -23.69296 -46.29730 11529 ft 191 kts 77°
2026-05-07 15:45 -23.69092 -46.28312 11860 ft 190 kts 77°
2026-05-07 15:46 -23.68690 -46.25486 12534 ft 189 kts 77°
2026-05-07 15:46 -23.68485 -46.24050 12889 ft 188 kts 78°
2026-05-07 15:46 -23.68284 -46.22652 13234 ft 188 kts 78°
2026-05-07 15:47 -23.68082 -46.21245 13592 ft 187 kts 78°
2026-05-07 15:47 -23.67881 -46.19826 13932 ft 188 kts 78°
2026-05-07 15:47 -23.67680 -46.18420 14245 ft 187 kts 78°
2026-05-07 15:47 -23.67475 -46.17026 14561 ft 187 kts 78°
2026-05-07 15:48 -23.67276 -46.15619 14881 ft 187 kts 78°
2026-05-07 15:48 -23.67070 -46.14205 15208 ft 188 kts 79°
2026-05-07 15:48 -23.66865 -46.12799 15542 ft 187 kts 78°
2026-05-07 15:48 -23.66667 -46.11400 15876 ft 187 kts 79°
2026-05-07 15:49 -23.66468 -46.09984 16209 ft 188 kts 79°
2026-05-07 15:49 -23.66266 -46.08575 16512 ft 188 kts 78°
2026-05-07 15:49 -23.66065 -46.07177 16805 ft 189 kts 79°
2026-05-07 15:49 -23.65861 -46.05747 17107 ft 191 kts 79°
2026-05-07 15:50 -23.65651 -46.04309 17409 ft 192 kts 79°
2026-05-07 15:50 -23.65444 -46.02857 17713 ft 193 kts 79°
2026-05-07 15:50 -23.65237 -46.01416 18018 ft 194 kts 79°
2026-05-07 15:50 -23.65029 -45.99957 18322 ft 194 kts 78°
2026-05-07 15:51 -23.64818 -45.98508 18585 ft 194 kts 79°
2026-05-07 15:51 -23.64609 -45.97060 18836 ft 195 kts 78°
2026-05-07 15:51 -23.64396 -45.95582 19063 ft 197 kts 79°
2026-05-07 15:51 -23.64181 -45.94089 19291 ft 200 kts 79°
2026-05-07 15:52 -23.63967 -45.92605 19519 ft 201 kts 79°
2026-05-07 15:52 -23.63747 -45.91076 19753 ft 203 kts 79°
2026-05-07 15:52 -23.63524 -45.89539 19989 ft 205 kts 79°
2026-05-07 15:52 -23.63304 -45.88012 20219 ft 207 kts 79°
2026-05-07 15:53 -23.63078 -45.86461 20456 ft 208 kts 79°
2026-05-07 15:53 -23.62849 -45.84878 20692 ft 209 kts 79°
2026-05-07 15:53 -23.62623 -45.83317 20937 ft 210 kts 79°
2026-05-07 15:53 -23.62393 -45.81740 21176 ft 210 kts 79°
2026-05-07 15:54 -23.62165 -45.80166 21418 ft 211 kts 79°
2026-05-07 15:54 -23.61933 -45.78573 21668 ft 211 kts 79°
2026-05-07 15:54 -23.61704 -45.76984 21918 ft 211 kts 79°
2026-05-07 15:54 -23.61473 -45.75401 22167 ft 212 kts 79°
2026-05-07 15:55 -23.61241 -45.73819 22418 ft 211 kts 80°
2026-05-07 15:55 -23.61012 -45.72241 22660 ft 212 kts 80°
2026-05-07 15:55 -23.60779 -45.70638 22868 ft 214 kts 80°
2026-05-07 15:55 -23.60621 -45.69559 23007 ft 215 kts 80°
2026-05-07 15:56 -23.60385 -45.67943 23217 ft 216 kts 80°
2026-05-07 15:56 -23.60152 -45.66340 23428 ft 218 kts 80°
2026-05-07 15:56 -23.59909 -45.64688 23630 ft 220 kts 80°
2026-05-07 15:56 -23.59668 -45.63034 23809 ft 221 kts 81°
2026-05-07 15:57 -23.59426 -45.61378 23983 ft 222 kts 81°
2026-05-07 15:57 -23.59181 -45.59720 24157 ft 224 kts 81°
2026-05-07 15:57 -23.58934 -45.58035 24337 ft 225 kts 81°
2026-05-07 15:57 -23.58685 -45.56325 24517 ft 226 kts 81°
2026-05-07 15:58 -23.58435 -45.54623 24699 ft 227 kts 81°
2026-05-07 15:58 -23.58187 -45.52938 24892 ft 227 kts 81°
2026-05-07 15:58 -23.57936 -45.51241 25095 ft 226 kts 82°
2026-05-07 15:58 -23.57686 -45.49546 25299 ft 225 kts 82°
2026-05-07 15:59 -23.57440 -45.47876 25503 ft 224 kts 82°
2026-05-07 15:59 -23.57141 -45.46196 25701 ft 224 kts 76°
2026-05-07 15:59 -23.56775 -45.44544 25855 ft 225 kts 79°
2026-05-07 15:59 -23.56444 -45.42872 26021 ft 226 kts 79°
2026-05-07 16:00 -23.56095 -45.41190 26175 ft 228 kts 78°
2026-05-07 16:00 -23.55736 -45.39507 26316 ft 230 kts 78°
2026-05-07 16:00 -23.55374 -45.37797 26464 ft 232 kts 79°
2026-05-07 16:00 -23.55011 -45.36077 26609 ft 234 kts 79°
2026-05-07 16:01 -23.54640 -45.34323 26706 ft 239 kts 79°
2026-05-07 16:01 -23.54263 -45.32542 26810 ft 242 kts 79°
2026-05-07 16:01 -23.53886 -45.30756 26895 ft 247 kts 79°
2026-05-07 16:01 -23.53494 -45.28905 26970 ft 252 kts 79°
2026-05-07 16:02 -23.53093 -45.27022 27015 ft 258 kts 79°
2026-05-07 16:02 -23.52681 -45.25079 27022 ft 265 kts 79°
2026-05-07 16:02 -23.52263 -45.23108 27025 ft 272 kts 79°
2026-05-07 16:02 -23.51827 -45.21055 27028 ft 278 kts 79°
2026-05-07 16:03 -23.51384 -45.18978 27027 ft 284 kts 79°
2026-05-07 16:03 -23.50932 -45.16861 27027 ft 289 kts 79°
2026-05-07 16:03 -23.50477 -45.14730 27030 ft 293 kts 79°
2026-05-07 16:03 -23.50016 -45.12562 27027 ft 297 kts 79°
2026-05-07 16:04 -23.49545 -45.10358 27029 ft 300 kts 79°
2026-05-07 16:04 -23.49064 -45.08107 27026 ft 303 kts 79°
2026-05-07 16:04 -23.48584 -45.05862 27019 ft 305 kts 79°
2026-05-07 16:04 -23.48100 -45.03606 27021 ft 307 kts 79°
2026-05-07 16:05 -23.47616 -45.01343 27022 ft 308 kts 79°
2026-05-07 16:05 -23.47128 -44.99061 27024 ft 310 kts 79°
2026-05-07 16:05 -23.46638 -44.96777 27023 ft 311 kts 79°
2026-05-07 16:05 -23.46144 -44.94475 27020 ft 312 kts 79°
2026-05-07 16:06 -23.45639 -44.92177 27019 ft 313 kts 79°
2026-05-07 16:06 -23.45125 -44.89878 27023 ft 313 kts 79°
2026-05-07 16:06 -23.44609 -44.87547 27019 ft 314 kts 79°
2026-05-07 16:06 -23.44105 -44.85258 27020 ft 314 kts 79°
2026-05-07 16:07 -23.43589 -44.82921 27019 ft 315 kts 79°
2026-05-07 16:07 -23.43081 -44.80630 27018 ft 315 kts 79°
2026-05-07 16:07 -23.42563 -44.78293 27020 ft 315 kts 79°
2026-05-07 16:07 -23.42050 -44.75977 27020 ft 315 kts 79°
2026-05-07 16:08 -23.41536 -44.73659 27019 ft 316 kts 79°
2026-05-07 16:08 -23.41021 -44.71339 27019 ft 316 kts 79°
2026-05-07 16:08 -23.40501 -44.68997 27017 ft 316 kts 79°
2026-05-07 16:08 -23.39983 -44.66666 27015 ft 316 kts 79°
2026-05-07 16:09 -23.39466 -44.64344 27015 ft 316 kts 79°
2026-05-07 16:09 -23.38946 -44.62008 27019 ft 316 kts 79°
2026-05-07 16:09 -23.38425 -44.59671 27010 ft 316 kts 79°
2026-05-07 16:09 -23.37909 -44.57356 27008 ft 316 kts 79°
2026-05-07 16:10 -23.37390 -44.55029 27011 ft 316 kts 79°
2026-05-07 16:10 -23.36870 -44.52699 27011 ft 316 kts 79°
2026-05-07 16:10 -23.36354 -44.50392 27011 ft 316 kts 79°
2026-05-07 16:10 -23.35834 -44.48070 27012 ft 316 kts 79°
2026-05-07 16:11 -23.35315 -44.45749 27011 ft 316 kts 79°
2026-05-07 16:11 -23.34793 -44.43420 27008 ft 316 kts 79°
2026-05-07 16:11 -23.34277 -44.41119 27010 ft 315 kts 79°
2026-05-07 16:11 -23.33751 -44.38774 27008 ft 315 kts 79°
2026-05-07 16:12 -23.33237 -44.36482 27008 ft 315 kts 79°
2026-05-07 16:12 -23.32716 -44.34164 27006 ft 315 kts 79°
2026-05-07 16:12 -23.32194 -44.31843 27007 ft 315 kts 79°
2026-05-07 16:12 -23.31676 -44.29540 27009 ft 315 kts 79°
2026-05-07 16:13 -23.31156 -44.27228 27008 ft 315 kts 79°
2026-05-07 16:13 -23.30628 -44.24887 27005 ft 315 kts 79°
2026-05-07 16:13 -23.30111 -44.22596 27009 ft 314 kts 79°
2026-05-07 16:13 -23.29586 -44.20267 27007 ft 314 kts 79°
2026-05-07 16:14 -23.29062 -44.17950 27008 ft 314 kts 79°
2026-05-07 16:14 -23.28540 -44.15636 27009 ft 314 kts 79°
2026-05-07 16:14 -23.27989 -44.13342 27010 ft 315 kts 76°
2026-05-07 16:14 -23.27402 -44.11071 27011 ft 314 kts 78°
2026-05-07 16:15 -23.26867 -44.08752 27011 ft 314 kts 78°
2026-05-07 16:15 -23.26315 -44.06463 27008 ft 314 kts 77°
2026-05-07 16:15 -23.25736 -44.04181 27011 ft 314 kts 77°
2026-05-07 16:15 -23.25156 -44.01872 27011 ft 314 kts 78°
2026-05-07 16:16 -23.24591 -43.99575 27010 ft 314 kts 78°
2026-05-07 16:16 -23.24028 -43.97296 27011 ft 313 kts 78°
2026-05-07 16:16 -23.23459 -43.95019 27009 ft 313 kts 78°
2026-05-07 16:16 -23.22884 -43.92712 27014 ft 313 kts 78°
2026-05-07 16:18 -23.18379 -43.74651 27012 ft 312 kts 78°
2026-05-07 16:19 -23.17815 -43.72401 27010 ft 312 kts 78°
2026-05-07 16:19 -23.17240 -43.70103 27010 ft 312 kts 78°
2026-05-07 16:19 -23.16675 -43.67847 27013 ft 312 kts 78°
2026-05-07 16:19 -23.16101 -43.65556 27011 ft 312 kts 78°
2026-05-07 16:20 -23.15532 -43.63292 27013 ft 312 kts 78°
2026-05-07 16:20 -23.14959 -43.61009 27011 ft 312 kts 78°
2026-05-07 16:20 -23.14443 -43.58955 27013 ft 311 kts 78°
2026-05-07 16:20 -23.13874 -43.56687 27012 ft 311 kts 78°
2026-05-07 16:21 -23.13323 -43.54500 27012 ft 311 kts 78°
2026-05-07 16:21 -23.12754 -43.52239 27010 ft 311 kts 78°
2026-05-07 16:21 -23.12183 -43.49969 27009 ft 311 kts 78°
2026-05-07 16:21 -23.11614 -43.47711 27009 ft 311 kts 78°
2026-05-07 16:22 -23.11037 -43.45425 27007 ft 311 kts 78°
2026-05-07 16:22 -23.10464 -43.43155 27005 ft 311 kts 78°
2026-05-07 16:22 -23.09894 -43.40895 27004 ft 311 kts 78°
2026-05-07 16:22 -23.09322 -43.38634 27002 ft 311 kts 78°
2026-05-07 16:23 -23.08752 -43.36378 27005 ft 311 kts 78°
2026-05-07 16:23 -23.08178 -43.34109 27002 ft 311 kts 78°
2026-05-07 16:23 -23.07601 -43.31830 27003 ft 311 kts 78°
2026-05-07 16:23 -23.07026 -43.29560 27003 ft 311 kts 78°
2026-05-07 16:24 -23.06452 -43.27298 27004 ft 311 kts 78°
2026-05-07 16:24 -23.05879 -43.25038 27004 ft 311 kts 78°
2026-05-07 16:24 -23.05306 -43.22781 27006 ft 311 kts 78°
2026-05-07 16:24 -23.04732 -43.20518 27007 ft 311 kts 78°
2026-05-07 16:25 -23.04152 -43.18237 27006 ft 311 kts 78°
2026-05-07 16:25 -23.03580 -43.15989 27005 ft 311 kts 78°
2026-05-07 16:25 -23.02999 -43.13705 27006 ft 311 kts 78°
2026-05-07 16:25 -23.02426 -43.11456 27005 ft 311 kts 78°
2026-05-07 16:26 -23.01849 -43.09193 27006 ft 311 kts 78°
2026-05-07 16:26 -23.01272 -43.06929 27005 ft 311 kts 78°
2026-05-07 16:26 -23.00695 -43.04668 27007 ft 311 kts 78°
2026-05-07 16:26 -23.00309 -43.03155 27008 ft 311 kts 78°
2026-05-07 16:27 -22.99538 -43.00133 27009 ft 311 kts 78°
2026-05-07 16:27 -22.98964 -42.97892 27011 ft 311 kts 78°
2026-05-07 16:27 -22.98382 -42.95615 27014 ft 311 kts 78°
2026-05-07 16:27 -22.97803 -42.93354 27017 ft 310 kts 78°
2026-05-07 16:28 -22.97229 -42.91108 27018 ft 311 kts 78°
2026-05-07 16:28 -22.96560 -42.88872 27021 ft 315 kts 68°
2026-05-07 16:28 -22.95436 -42.86815 27018 ft 317 kts 58°
2026-05-07 16:28 -22.94183 -42.84848 27021 ft 317 kts 58°
2026-05-07 16:29 -22.92973 -42.82870 27024 ft 316 kts 60°
2026-05-07 16:29 -22.91793 -42.80841 27026 ft 317 kts 60°
2026-05-07 16:29 -22.90601 -42.78815 27027 ft 316 kts 59°
2026-05-07 16:29 -22.89412 -42.76840 27029 ft 316 kts 59°
2026-05-07 16:30 -22.88210 -42.74838 27025 ft 316 kts 59°
2026-05-07 16:30 -22.87018 -42.72833 27027 ft 316 kts 59°
2026-05-07 16:30 -22.85825 -42.70831 27027 ft 316 kts 59°
2026-05-07 16:30 -22.84626 -42.68825 27028 ft 317 kts 59°
2026-05-07 16:31 -22.83422 -42.66812 27022 ft 317 kts 59°
2026-05-07 16:31 -22.82234 -42.64825 27027 ft 317 kts 59°
2026-05-07 16:31 -22.81025 -42.62802 27027 ft 317 kts 59°
2026-05-07 16:31 -22.79820 -42.60787 27025 ft 317 kts 59°
2026-05-07 16:32 -22.78628 -42.58798 27025 ft 317 kts 59°
2026-05-07 16:32 -22.77828 -42.57461 27025 ft 316 kts 59°
2026-05-07 16:32 -22.76232 -42.54792 27024 ft 316 kts 59°
2026-05-07 16:32 -22.75432 -42.53457 27026 ft 316 kts 59°
2026-05-07 16:33 -22.74225 -42.51445 27031 ft 316 kts 59°
2026-05-07 16:33 -22.72626 -42.48778 27031 ft 316 kts 59°
2026-05-07 16:33 -22.71819 -42.47433 27030 ft 316 kts 59°
2026-05-07 16:33 -22.70627 -42.45445 27037 ft 316 kts 59°
2026-05-07 16:34 -22.69429 -42.43450 27034 ft 316 kts 59°
2026-05-07 16:34 -22.68218 -42.41433 27035 ft 316 kts 59°
2026-05-07 16:34 -22.67030 -42.39454 27035 ft 316 kts 59°
2026-05-07 16:34 -22.65816 -42.37435 27035 ft 316 kts 59°
2026-05-07 16:35 -22.64620 -42.35445 27035 ft 316 kts 59°
2026-05-07 16:35 -22.63421 -42.33450 27035 ft 315 kts 59°
2026-05-07 16:35 -22.62234 -42.31476 27034 ft 315 kts 59°
2026-05-07 16:35 -22.61027 -42.29473 27037 ft 315 kts 59°
2026-05-07 16:36 -22.59837 -42.27494 27037 ft 315 kts 59°
2026-05-07 16:36 -22.58631 -42.25523 27039 ft 316 kts 56°
2026-05-07 16:36 -22.57093 -42.23812 27043 ft 318 kts 41°
2026-05-07 16:36 -22.55350 -42.22304 27047 ft 318 kts 39°
2026-05-07 16:37 -22.53622 -42.20812 27049 ft 318 kts 40°
2026-05-07 16:37 -22.51930 -42.19269 27049 ft 318 kts 41°
2026-05-07 16:37 -22.50240 -42.17719 27049 ft 318 kts 41°
2026-05-07 16:37 -22.48547 -42.16199 27053 ft 318 kts 40°
2026-05-07 16:38 -22.46820 -42.14656 27056 ft 318 kts 41°
2026-05-07 16:38 -22.45129 -42.13133 27060 ft 318 kts 41°
2026-05-07 16:38 -22.43423 -42.11596 27057 ft 317 kts 41°
2026-05-07 16:38 -22.41729 -42.10071 27057 ft 319 kts 41°
2026-05-07 16:39 -22.40021 -42.08536 27049 ft 319 kts 41°
2026-05-07 16:39 -22.38315 -42.07005 27046 ft 319 kts 41°
2026-05-07 16:39 -22.36605 -42.05468 27044 ft 318 kts 41°
2026-05-07 16:39 -22.34901 -42.03937 27043 ft 318 kts 41°
2026-05-07 16:40 -22.33189 -42.02400 27041 ft 318 kts 41°
2026-05-07 16:40 -22.31514 -42.00898 27039 ft 317 kts 41°
2026-05-07 16:40 -22.29818 -41.99375 27036 ft 317 kts 41°
2026-05-07 16:40 -22.28104 -41.97838 27036 ft 317 kts 41°
2026-05-07 16:41 -22.26407 -41.96317 27036 ft 316 kts 41°
2026-05-07 16:41 -22.24718 -41.94802 27034 ft 316 kts 41°
2026-05-07 16:41 -22.23045 -41.93304 27032 ft 316 kts 41°
2026-05-07 16:41 -22.21349 -41.91783 27033 ft 316 kts 41°
2026-05-07 16:42 -22.19645 -41.90256 27032 ft 316 kts 41°
2026-05-07 16:42 -22.17941 -41.88732 27033 ft 317 kts 41°
2026-05-07 16:42 -22.16234 -41.87206 27034 ft 316 kts 41°
2026-05-07 16:42 -22.14549 -41.85697 27035 ft 316 kts 41°
2026-05-07 16:43 -22.12846 -41.84174 27039 ft 316 kts 41°
2026-05-07 16:43 -22.11168 -41.82675 27038 ft 316 kts 41°
2026-05-07 16:43 -22.09469 -41.81155 27041 ft 316 kts 41°
2026-05-07 16:43 -22.07774 -41.79639 27042 ft 316 kts 41°
2026-05-07 16:44 -22.06086 -41.78131 27045 ft 316 kts 41°
2026-05-07 16:44 -22.04389 -41.76614 27048 ft 316 kts 41°
2026-05-07 16:44 -22.02680 -41.75088 27049 ft 316 kts 41°
2026-05-07 16:44 -22.00997 -41.73586 27050 ft 317 kts 41°
2026-05-07 16:45 -21.99289 -41.72061 27052 ft 316 kts 41°
2026-05-07 16:45 -21.97598 -41.70552 27054 ft 316 kts 41°
2026-05-07 16:45 -21.95911 -41.69049 27056 ft 316 kts 41°
2026-05-07 16:45 -21.94213 -41.67536 27056 ft 316 kts 41°
2026-05-07 16:46 -21.92516 -41.66022 27057 ft 316 kts 41°
2026-05-07 16:46 -21.90810 -41.64503 27053 ft 316 kts 41°
2026-05-07 16:46 -21.89131 -41.63008 27054 ft 316 kts 41°
2026-05-07 16:46 -21.87425 -41.61490 27052 ft 316 kts 41°
2026-05-07 16:47 -21.85721 -41.59973 27051 ft 316 kts 41°
2026-05-07 16:47 -21.84041 -41.58478 27051 ft 316 kts 41°
2026-05-07 16:47 -21.82336 -41.56962 26859 ft 323 kts 41°
2026-05-07 16:47 -21.80566 -41.55387 26567 ft 331 kts 41°
2026-05-07 16:48 -21.78794 -41.53803 26283 ft 334 kts 41°
2026-05-07 16:48 -21.76983 -41.52192 25993 ft 336 kts 41°
2026-05-07 16:48 -21.75191 -41.50608 25715 ft 337 kts 40°
2026-05-07 16:48 -21.73380 -41.49002 25433 ft 337 kts 41°
2026-05-07 16:49 -21.71572 -41.47395 25155 ft 336 kts 40°
2026-05-07 16:49 -21.69786 -41.45810 24881 ft 335 kts 40°
2026-05-07 16:49 -21.67978 -41.44208 24605 ft 334 kts 40°
2026-05-07 16:49 -21.66187 -41.42620 24333 ft 333 kts 40°
2026-05-07 16:50 -21.64406 -41.41041 24063 ft 331 kts 40°
2026-05-07 16:50 -21.62633 -41.39469 23794 ft 330 kts 40°
2026-05-07 16:50 -21.60863 -41.37902 23511 ft 329 kts 40°
2026-05-07 16:50 -21.59100 -41.36338 23199 ft 321 kts 41°
2026-05-07 16:51 -21.57370 -41.34800 22882 ft 321 kts 40°
2026-05-07 16:51 -21.55661 -41.33305 22576 ft 321 kts 40°
2026-05-07 16:51 -21.53924 -41.31770 22267 ft 320 kts 40°
2026-05-07 16:51 -21.52213 -41.30246 21965 ft 319 kts 40°
2026-05-07 16:52 -21.50515 -41.28743 21661 ft 318 kts 40°
2026-05-07 16:52 -21.48809 -41.27240 21369 ft 317 kts 40°
2026-05-07 16:52 -21.47100 -41.25731 21077 ft 316 kts 40°
2026-05-07 16:52 -21.45410 -41.24236 20788 ft 314 kts 40°
2026-05-07 16:53 -21.43748 -41.22765 20502 ft 311 kts 40°
2026-05-07 16:53 -21.42084 -41.21299 20219 ft 309 kts 40°
2026-05-07 16:53 -21.40410 -41.19824 19934 ft 307 kts 40°
2026-05-07 16:53 -21.38779 -41.18384 19656 ft 305 kts 40°
2026-05-07 16:54 -21.37147 -41.16945 19380 ft 302 kts 40°
2026-05-07 16:54 -21.35519 -41.15511 19104 ft 300 kts 40°
2026-05-07 16:54 -21.33902 -41.14086 18833 ft 298 kts 39°
2026-05-07 16:54 -21.32313 -41.12685 18563 ft 296 kts 39°
2026-05-07 16:55 -21.30709 -41.11272 18284 ft 294 kts 39°
2026-05-07 16:55 -21.29129 -41.09881 17972 ft 292 kts 39°
2026-05-07 16:55 -21.27567 -41.08507 17660 ft 290 kts 39°
2026-05-07 16:55 -21.26011 -41.07137 17355 ft 288 kts 39°
2026-05-07 16:56 -21.24468 -41.05780 17046 ft 286 kts 39°
2026-05-07 16:56 -21.22936 -41.04433 16752 ft 283 kts 39°
2026-05-07 16:56 -21.19909 -41.01771 16165 ft 279 kts 39°
2026-05-07 16:57 -21.18410 -41.00452 15877 ft 277 kts 39°
2026-05-07 16:57 -21.16940 -40.99163 15591 ft 276 kts 39°
2026-05-07 16:57 -21.15441 -40.97846 15298 ft 274 kts 39°
2026-05-07 16:57 -21.13981 -40.96563 15018 ft 272 kts 39°
2026-05-07 16:58 -21.12519 -40.95280 14740 ft 270 kts 39°
2026-05-07 16:58 -21.11069 -40.94007 14466 ft 269 kts 39°
2026-05-07 16:58 -21.09630 -40.92745 14188 ft 267 kts 39°
2026-05-07 16:58 -21.08190 -40.91480 13914 ft 265 kts 39°
2026-05-07 16:59 -21.06770 -40.90237 13611 ft 263 kts 39°
2026-05-07 16:59 -21.05339 -40.88984 13302 ft 262 kts 39°
2026-05-07 16:59 -21.03935 -40.87753 12992 ft 261 kts 39°
2026-05-07 16:59 -21.02534 -40.86523 12696 ft 259 kts 39°
2026-05-07 17:00 -21.01152 -40.85314 12402 ft 257 kts 39°
2026-05-07 17:00 -20.99759 -40.84095 12104 ft 256 kts 39°
2026-05-07 17:00 -20.98396 -40.82900 11805 ft 254 kts 39°
2026-05-07 17:00 -20.97025 -40.81701 11520 ft 252 kts 39°
2026-05-07 17:01 -20.95687 -40.80528 11234 ft 251 kts 39°
2026-05-07 17:01 -20.94323 -40.79334 10946 ft 249 kts 39°
2026-05-07 17:01 -20.93009 -40.78181 10676 ft 244 kts 39°
2026-05-07 17:01 -20.92134 -40.77414 10485 ft 241 kts 39°
2026-05-07 17:02 -20.90833 -40.76281 10196 ft 238 kts 39°
2026-05-07 17:02 -20.89559 -40.75170 9920 ft 236 kts 39°
2026-05-07 17:02 -20.88292 -40.74062 9606 ft 234 kts 39°
2026-05-07 17:02 -20.87040 -40.72968 9305 ft 233 kts 40°
2026-05-07 17:03 -20.85779 -40.71866 9001 ft 231 kts 40°
2026-05-07 17:03 -20.84548 -40.70790 8707 ft 230 kts 40°
2026-05-07 17:03 -20.83309 -40.69708 8410 ft 229 kts 40°
2026-05-07 17:03 -20.82080 -40.68635 8119 ft 228 kts 40°
2026-05-07 17:04 -20.80855 -40.67565 7830 ft 225 kts 39°
2026-05-07 17:04 -20.79577 -40.66625 7532 ft 221 kts 34°
2026-05-07 17:04 -20.78312 -40.65690 7319 ft 217 kts 35°
2026-05-07 17:04 -20.77082 -40.64766 6966 ft 215 kts 36°
2026-05-07 17:05 -20.75858 -40.63863 6686 ft 214 kts 36°
2026-05-07 17:05 -20.74644 -40.62969 6400 ft 213 kts 36°
2026-05-07 17:05 -20.73438 -40.62078 6115 ft 210 kts 36°
2026-05-07 17:05 -20.72226 -40.61184 5817 ft 210 kts 36°
2026-05-07 17:06 -20.71031 -40.60302 5521 ft 211 kts 36°
2026-05-07 17:06 -20.69878 -40.59450 5250 ft 211 kts 36°
2026-05-07 17:06 -20.68606 -40.58514 4951 ft 210 kts 36°
2026-05-07 17:06 -20.67416 -40.57635 4661 ft 208 kts 36°
2026-05-07 17:07 -20.66230 -40.56763 4514 ft 202 kts 35°
2026-05-07 17:07 -20.65096 -40.55933 4500 ft 194 kts 35°
2026-05-07 17:07 -20.63986 -40.55120 4501 ft 193 kts 35°
2026-05-07 17:07 -20.62892 -40.54312 4497 ft 192 kts 35°
2026-05-07 17:08 -20.61785 -40.53500 4499 ft 196 kts 35°
2026-05-07 17:08 -20.60657 -40.52667 4500 ft 198 kts 35°
2026-05-07 17:08 -20.59512 -40.51818 4495 ft 202 kts 36°
2026-05-07 17:08 -20.58352 -40.50963 4496 ft 201 kts 36°
2026-05-07 17:09 -20.57194 -40.50112 4496 ft 201 kts 35°
2026-05-07 17:09 -20.56046 -40.49268 4492 ft 200 kts 36°
2026-05-07 17:09 -20.54892 -40.48428 4503 ft 201 kts 36°
2026-05-07 17:09 -20.53752 -40.47581 4501 ft 202 kts 36°
2026-05-07 17:10 -20.52594 -40.46724 4448 ft 203 kts 36°
2026-05-07 17:10 -20.51425 -40.45864 4398 ft 203 kts 36°
2026-05-07 17:10 -20.50264 -40.45016 4350 ft 203 kts 36°
2026-05-07 17:10 -20.49103 -40.44161 4300 ft 203 kts 35°
2026-05-07 17:11 -20.47931 -40.43299 4244 ft 202 kts 36°
2026-05-07 17:11 -20.46732 -40.42531 4189 ft 202 kts 32°
2026-05-07 17:11 -20.45527 -40.41721 4096 ft 206 kts 34°
2026-05-07 17:11 -20.44320 -40.40897 3960 ft 208 kts 33°
2026-05-07 17:12 -20.43088 -40.40079 3753 ft 207 kts 33°
2026-05-07 17:12 -20.41954 -40.39129 3555 ft 205 kts 48°
2026-05-07 17:12 -20.40864 -40.38148 3367 ft 205 kts 36°
2026-05-07 17:12 -20.39672 -40.37363 3167 ft 204 kts 26°
2026-05-07 17:13 -20.38341 -40.36850 2973 ft 203 kts 22°
2026-05-07 17:13 -20.37082 -40.36180 2744 ft 202 kts 32°
2026-05-07 17:13 -20.35922 -40.35372 2460 ft 198 kts 35°
2026-05-07 17:13 -20.34752 -40.34573 2206 ft 195 kts 32°
2026-05-07 17:14 -20.33617 -40.33841 2000 ft 186 kts 32°
2026-05-07 17:14 -20.32581 -40.33156 1985 ft 165 kts 32°
2026-05-07 17:14 -20.31633 -40.32538 1956 ft 158 kts 32°
2026-05-07 17:14 -20.30673 -40.31903 1723 ft 165 kts 33°
2026-05-07 17:15 -20.29691 -40.31243 1516 ft 161 kts 33°
2026-05-07 17:15 -20.28773 -40.30629 1125 ft 151 kts 35°
2026-05-07 17:15 -20.27925 -40.30137 641 ft 134 kts 19°
2026-05-07 17:15 -20.27216 -40.29692 426 ft 109 kts 44°
2026-05-07 17:16 -20.26624 -40.29221 144 ft 103 kts 33°
2026-05-07 17:16 -20.26069 -40.28864 17 ft 85 kts 32°
2026-05-07 17:16 -20.25652 -40.28591 8 ft 39 kts 30°
2026-05-07 17:16 -20.25471 -40.28472 9 ft 27 kts 32°
2026-05-07 17:17 -20.25314 -40.28368 10 ft 25 kts 29°
2026-05-07 17:17 -20.25186 -40.28273 11 ft 17 kts 71°
2026-05-07 17:17 -20.25222 -40.28226 11 ft 17 kts 171°
2026-05-07 17:17 -20.25256 -40.28220 11 ft 0 kts 173°
2026-05-07 17:19 -20.25262 -40.28220 11 ft 2 kts 175°
2026-05-07 17:20 -20.25292 -40.28216 11 ft 0 kts 173°
2026-05-07 17:20 -20.25300 -40.28216 11 ft 0 kts 177°
2026-05-07 17:20 -20.25327 -40.28211 12 ft 2 kts 164°
2026-05-07 17:20 -20.25380 -40.28204 12 ft 11 kts 169°
2026-05-07 17:21 -20.25455 -40.28245 12 ft 12 kts 238°
2026-05-07 17:21 -20.25523 -40.28298 11 ft 11 kts 212°
2026-05-07 17:21 -20.25587 -40.28340 11 ft 11 kts 211°
2026-05-07 17:21 -20.25660 -40.28387 11 ft 11 kts 211°
2026-05-07 17:22 -20.25748 -40.28445 11 ft 18 kts 213°
2026-05-07 17:22 -20.25815 -40.28488 11 ft 9 kts 207°
2026-05-07 17:22 -20.25825 -40.28566 10 ft 10 kts 300°
2026-05-07 17:22 -20.25797 -40.28612 9 ft 9 kts 302°
2026-05-07 17:23 -20.25751 -40.28690 8 ft 11 kts 302°
2026-05-07 17:23 -20.25721 -40.28743 10 ft 9 kts 301°
2026-05-07 17:23 -20.25698 -40.28790 10 ft 6 kts 269°
2026-05-07 17:23 -20.25740 -40.28828 10 ft 10 kts 213°
2026-05-07 17:24 -20.25787 -40.28859 10 ft 7 kts 211°
2026-05-07 17:24 -20.25831 -40.28889 10 ft 7 kts 213°
2026-05-07 17:24 -20.25850 -40.28910 10 ft 5 kts 274°
2026-05-07 17:24 -20.25839 -40.28926 10 ft 1 kts 313°
2026-05-07 17:25 -20.25834 -40.28935 10 ft 6 kts 302°
2026-05-07 17:25 -20.25831 -40.28939 10 ft 4 kts 306°
2026-05-07 17:25 -20.25830 -40.28941 10 ft 0 kts 307°
2026-05-07 17:25 -20.25828 -40.28944 10 ft 0 kts 306°
2026-05-07 17:26 -20.25824 -40.28951 10 ft 0 kts 302°
2026-05-07 17:31 -20.25825 -40.28950 10 ft 0 kts 302°